Flag for Colombia Weather past 2 weeks in Manizales, Colombia

Now
68 °F

Passing clouds.


Feels Like: 68 °F
Forecast: 56 / 76 °F
Wind: 9 mph from East

Location: Pereira / Matecana

Current Time: May 23, 2015 at 1:21:34 AM

Latest Report: May 23, 2015 at 1:00 AM


Visibility: N/A

Pressure: 30.11 "Hg

Humidity: 78%

Dew point: 61 °F

Location of ManizalesLocation

Historic Weather in Manizales — Graph

°F

Manizales temperature yesterday

Maximum temperature yesterday: 81 °F (at 1:00 PM)
Minimum temperature yesterday: 66 °F (at 12:00 AM)
Average temperature yesterday: 72 °F

Past Weeks' High & Low Weather Summary

 TemperatureHumidityPressure
High88 °F (May 12, 3:00 PM)100% (May 21, 6:00 AM)30.16 "Hg (May 21, 6:00 AM)
Low64 °F (May 16, 6:00 AM)40% (May 12, 1:00 PM)29.71 "Hg (May 12, 5:00 PM)
Average74 °F75%30.03 "Hg
* Reported Midnight between May 7 and May 8 — Midnight between May 22 and May 23, Manizales, Weather by CustomWeather, © 2015

Note: Actual official high and low records may vary slightly from our data, if they occured in-between our weather recording intervals... More about our weather records

Advertising

Manizales weather history for previous 24 hours

 ConditionsComfort  
Time TempWeatherWind HumidityBarometerVisibility
12:00 AM
Sat, May 23
68 °FPassing clouds.12 mph78%30.10 "HgN/A
11:00 PM
Fri, May 22
68 °FPassing clouds.14 mph78%30.11 "HgN/A
10:00 PM68 °FPassing clouds.12 mph78%30.09 "HgN/A
9:00 PM70 °FPassing clouds.9 mph78%30.08 "HgN/A
8:00 PM70 °FPassing clouds.8 mph83%30.06 "HgN/A
7:00 PM72 °FPassing clouds.3 mph83%30.03 "HgN/A
6:00 PM73 °FScattered clouds.7 mph74%30.01 "HgN/A
5:00 PM73 °FScattered clouds.5 mph74%30.01 "HgN/A
4:00 PM72 °FScattered showers. Scattered clouds.8 mph78%30.02 "HgN/A
3:00 PM75 °FThunderstorms. Scattered clouds.5 mph74%30.04 "HgN/A
2:00 PM81 °FScattered clouds.8 mph66%30.05 "HgN/A
1:00 PM81 °FScattered clouds.6 mph70%30.09 "HgN/A
12:00 PM77 °FScattered clouds.2 mph74%30.12 "HgN/A
11:00 AM73 °FScattered clouds.6 mph83%30.14 "HgN/A
10:00 AM73 °FScattered clouds.2 mph78%30.16 "HgN/A
9:00 AM70 °FScattered clouds.No wind83%30.16 "HgN/A
8:00 AM70 °FScattered clouds.5 mph83%30.15 "HgN/A
7:00 AM68 °FScattered clouds.2 mph88%30.13 "HgN/A
6:00 AM66 °FScattered clouds.5 mph94%30.12 "HgN/A
5:00 AM66 °FFog.6 mph94%30.10 "HgN/A
Weather by CustomWeather, © 2015

See weather overviewHow to use our weather pages